Preview of NWS' New Version of Forecast
This preview is not operational and should not be used for support decisions.
Latest weather observations around

Salt Lake City, Salt Lake City International Airport (KSLC)

Using English Units (Switch to International System of Units)
Date/ Time (MDT) Wind (mph) Vis. (mi) Weather Sky Cond. Temp (°F) Rel. Humidity Wind Chill (°F) Heat Index (°F) Pressure Precip. (in)
Air Dwpt 6 hour Altimeter (inHg) Sea level (inHg) 1 hr 3 hr 6 hr
Max Min
Jun 26 23:54 S 14 10 Mostly Clear FEW200 80 31     17%   79 29.9 29.71      
Jun 26 22:54 SSE 17 10 Mostly Clear FEW100 FEW200 80 34     19%   79 29.89 29.7      
Jun 26 21:54 S 14 10 Partly Cloudy FEW100 SCT200 84 33     16%   81 29.87 29.68      
Jun 26 20:54 S 11 10 Mostly Cloudy SCT100 BKN200 85 35     17%   82 29.85 29.66      
Jun 26 19:54 S 18 10 Partly Cloudy FEW090 FEW120 SCT200 89 33     14%   85 29.84 29.66      
Jun 26 18:54 S 15 10 Partly Cloudy FEW090 FEW120 SCT180 SCT250 90 35     14%   86 29.84 29.66      
Jun 26 17:54 S 20 10 Mostly Cloudy and Windy FEW090 FEW120 SCT180 BKN250 91 34     13%   87 29.85 29.67      
Jun 26 16:54 S 20 10 Mostly Cloudy and Windy FEW095 FEW120 BKN180 BKN250 91 35     14%   87 29.87 29.69      
Jun 26 15:54 S 20 10 Mostly Cloudy and Windy FEW100 BKN180 BKN250 91 32     12%   87 29.88 29.71      
Jun 26 14:54 S 18 10 Mostly Cloudy FEW100 BKN200 BKN250 90 35     14%   86 29.89 29.71      
Jun 26 13:54 S 24 10 Mostly Cloudy and Windy FEW100 BKN200 BKN250 89 33     14%   85 29.9 29.73      
Jun 26 12:54 SSE 22 10 Mostly Cloudy and Windy SCT200 BKN250 87 34     15%   84 29.91 29.74      
Jun 26 11:54 SSE 16 10 Mostly Cloudy SCT200 BKN250 86 36     17%   83 29.92 29.75      
Jun 26 10:54 S 20 10 Mostly Cloudy and Windy SCT200 BKN250 84 34     17%   81 29.91 29.74      
Jun 26 09:54 S 24 10 Partly Cloudy and Windy FEW170 SCT210 SCT250 82 34     18%   80 29.92 29.74      
Jun 26 08:54 SSE 21 10 Partly Cloudy and Windy FEW140 SCT220 79 34     20%   77 29.92 29.74      
Jun 26 07:54 ESE 10 10 Mostly Clear FEW140 FEW220 72 40     31%   70 29.91 29.73      
Jun 26 06:54 ESE 8 10 Mostly Clear FEW100 69 36     30%     29.9 29.72      
Jun 26 05:54 SE 9 10 Clear CLR 70 34     26%     29.88 29.71      
Jun 26 04:54 ESE 9 10 Clear CLR 67 40     37%     29.88 29.71      
Jun 26 03:54 SE 8 10 Mostly Clear FEW180 65 45     48%     29.88 29.72      
Jun 26 02:54 SE 9 10 Mostly Clear FEW180 66 44     45%     29.88 29.71      
Jun 26 01:54 ESE 7 10 Mostly Clear FEW180 68 49     50%     29.89 29.72      
Jun 26 00:54 SSW 6 10 Mostly Clear FEW180 69 52     54%     29.89 29.72      
Jun 25 23:54 WNW 3 10 Mostly Clear FEW095 FEW180 72 49     44%   71 29.89 29.72      
Jun 25 22:54 N 14 10 Mostly Clear FEW095 FEW180 74        %     29.88 29.72      
Jun 25 21:54 E 3 10 Mostly Cloudy FEW095 BKN170 78 52     40%   77 29.81 29.64      
Jun 25 20:54 N 7 10 Mostly Cloudy FEW095 FEW120 BKN180 BKN230 81 50     34%   80 29.78 29.61      
Jun 25 19:54 6 10 Mostly Cloudy FEW095 FEW130 SCT170 BKN250 86 46     25%   83 29.77        
Jun 25 18:54 NE 8 10 Mostly Cloudy FEW095 FEW130 BKN180 BKN250 88 45     22%   85 29.78 29.61      
Jun 25 17:54 NNW 10 10 Mostly Cloudy FEW095 FEW130 BKN160 BKN250 87 44     22%   84 29.8 29.63      
Jun 25 16:54 N 10 10 Mostly Cloudy FEW095 FEW130 BKN160 BKN250 87 43     21%   84 29.82 29.65      
Jun 25 15:54 N 13 10 Mostly Cloudy FEW095 FEW140 BKN170 BKN250 87 44     22%   84 29.83 29.66      
Jun 25 14:54 NNW 10 10 Mostly Cloudy FEW095 FEW140 BKN190 BKN250 87 42     21%   84 29.85 29.68      
Jun 25 13:54 Calm 10 Mostly Cloudy FEW095 FEW140 BKN200 BKN250 89 39     17%   85 29.87 29.7      
Jun 25 12:54 W 7 10 Mostly Cloudy FEW095 FEW140 BKN200 BKN250 85 38     19%   82 29.89 29.72      
Jun 25 11:54 SSW 10 10 Mostly Cloudy FEW090 FEW140 SCT180 BKN230 81 39     22%   80 29.91 29.74      
Jun 25 10:54 S 11 10 Mostly Cloudy FEW090 FEW130 SCT180 BKN220 80 38     22%   79 29.9 29.73      
Jun 25 09:54 E 7 10 Mostly Cloudy FEW100 FEW140 SCT180 BKN220 74 44     34%   73 29.9 29.74      
Jun 25 08:54 SE 9 10 Mostly Cloudy FEW140 BKN180 BKN220 72 44     37%   71 29.89 29.73      
Jun 25 07:54 SSE 7 10 Mostly Cloudy FEW090 BKN130 BKN200 71 44     38%   70 29.88 29.71      
Jun 25 06:54 SSE 10 10 Mostly Cloudy BKN130 BKN150 67 44     44%     29.86 29.7      
Jun 25 05:54 ESE 7 10 Mostly Cloudy BKN130 BKN180 64 44     48%     29.86 29.7      
Jun 25 04:54 SE 9 10 Partly Cloudy FEW130 SCT220 67 41     39%     29.85 29.69      
Jun 25 03:54 SSE 7 10 Clear   66 41     40%     29.85 29.7      
Jun 25 02:54 SSE 9 10 Mostly Clear FEW220 66 41     40%     29.85 29.69      
Jun 25 01:54 SSE 9 10 Mostly Clear FEW220 67 42     40%     29.87 29.71      
Jun 25 00:54 SE 8 10 Partly Cloudy FEW100 SCT220 69 41     36%     29.87 29.71      
Jun 24 23:54 E 7 10 Partly Cloudy FEW100 SCT220 70 44     39%     29.87 29.71      
Jun 24 22:54 SE 6 10 Partly Cloudy FEW100 SCT220 72 44     37%   71 29.87 29.71      
Jun 24 21:54 Calm 10 Partly Cloudy SCT100 SCT220 75 48     38%   74 29.86 29.7      
Jun 24 20:54 N 6 10 Partly Cloudy FEW100 SCT220 76 47     36%   75 29.86 29.7      
Jun 24 19:54 N 8 10 Partly Cloudy FEW095 SCT200 82 41     23%   80 29.86 29.71      
Jun 24 18:54 NNE 11 10 Clear   83 42     24%   81 29.87 29.72      
Jun 24 17:54 NNE 10 10 Partly Cloudy FEW095 SCT150 SCT220 83 42     24%   81 29.88 29.73      
Jun 24 15:54 6 10 Clear   82 43     25%   80 29.92 29.77      
Jun 24 14:54 NNW 8 10 Partly Cloudy FEW095 SCT150 SCT220 81 42     25%   80 29.93 29.78      
Jun 24 13:54 NW 8 10 Partly Cloudy FEW090 SCT150 80 43     27%   79 29.95 29.8      
Jun 24 12:54 NNE 7 10 Partly Cloudy FEW090 SCT150 79 42     27%   78 29.96 29.81      
Jun 24 11:54 N 7 10 Partly Cloudy FEW090 SCT150 77 42     29%   76 29.98 29.83      
Jun 24 10:54 WNW 5 10 Mostly Clear FEW100 FEW150 75 40     28%   74 29.99 29.84      
Jun 24 09:54 SSE 5 10 Mostly Clear FEW140 FEW230 72 40     31%   70 30 29.85      
Jun 24 08:54 SSE 8 10 Mostly Clear FEW140 FEW220 68 41     37%     30 29.85      
Jun 24 07:54 SE 9 10 Mostly Clear FEW130 FEW200 64 40     41%     30 29.86      
Jun 24 07:25 SE 9 10 Clear CLR 62 39     43%     30        
Jun 24 06:54 SSE 7 10 Mostly Clear FEW120 FEW200 60 39     46%     30 29.86      
Jun 24 05:54 SE 3 10 Partly Cloudy SCT120 60 39     46%     29.99 29.85      
Jun 24 04:54 S 7 10 Mostly Clear FEW160 62 38     41%     29.98 29.85      
Jun 24 03:54 S 6 10 Mostly Clear FEW160 61 39     44%     29.97 29.84      
Jun 24 02:54 SE 6 10 Mostly Clear FEW120 FEW160 67 38     34%     29.97 29.82      
Jun 24 01:54 ESE 9 10 Partly Cloudy SCT120 SCT160 66 37     34%     29.95 29.81      
Jun 24 00:54 ESE 9 10 Mostly Clear FEW160 66 38     36%     29.96 29.83      
Jun 23 23:54 ESE 9 10 Mostly Clear FEW160 67 38     34%     29.96 29.83      
May 15 10:54 Calm 10 Clear CLR 62 44     52%     30.05 29.96      
May 15 02:54 NNE 11 10 Partly Cloudy FEW080 SCT120 52 45     76%     30.04        
May 14 20:54 N 7 8 Rain FEW040 BKN045 BKN080 52 50     94%     30.08        
May 14 18:54 ESE 7 6 Clear   57        %     30.08        
Notice The following observation data may not be complete
May 13 18:54   10 Mostly Cloudy FEW050 SCT090 BKN120 BKN230          %     29.96 29.89      
May 12 23:54 WNW 3 10 Mostly Clear FEW200 48 40     73% 47   29.98 29.93      
May 12 15:03 WSW 13 10 Cloudy FEW035 BKN048 BKN130 OVC200 51 43     74%     29.89        
May 11 10:29 NNW 24 10 Cloudy and Windy SCT026 BKN031 BKN042 OVC140 54 44     69%     29.77        
May 11 10:11   10 Cloudy FEW021 BKN026 BKN042 OVC130 54 43     66%     29.76        
May 11 09:54   10 Cloudy FEW021 BKN035 BKN043 OVC130 55 43     64%     29.76 29.65      
May 11 06:54 SSE 5 10 Light Rain FEW055 SCT070 OVC100 56 51     84%     29.74 29.61 0    
Jun 11 16:54   10 Mostly Cloudy BKN110 BKN150 BKN190 90 30     12%   86 29.54 29.37      
Jun 11 15:54   10 Mostly Cloudy BKN110 BKN190 91 28     10%   86   29.39      
Jun 11 13:54 S 21 10 Partly Cloudy and Windy SCT110 SCT130 88 33     14%   84 29.62 29.45      
Jun 10 21:54 NNW 10 10 Mostly Clear FEW120 72 42     34%   70 29.68 29.53      
Jun 10 09:54 Calm 10 Mostly Clear FEW110 FEW140 FEW200 68 44     42%     29.76 29.63      
Jun 09 10:54   10 Mostly Cloudy FEW130 BKN240 75 40     28%   74 29.82 29.64      
Jun 08 22:54   10 Clear   84 24     11%   81 29.77 29.57      
Jun 08 14:54 S 25 10 Mostly Cloudy and Windy FEW160 BKN200 BKN240 95 17     6%   88 29.84 29.64      
Jun 08 13:54 SSE 25 10 Mostly Cloudy and Windy FEW170 BKN210 BKN240 92 22     8%   86 29.86 29.66      
Jun 08 06:54 SSE 16 10 Clear   74 33     22%   72 29.92 29.72      
Jun 06 10:54 NNW 7 10 Mostly Clear FEW250 83 49     31%   81 30.04 29.87